Weather History for West Palm Beach, FL

Change the Weather History Date:

Thursday, May 30, 2013

  Actual Average Record
Temperature  
Mean Temperature 77 °F 80 °F  
Max Temperature 81 °F 87 °F 96 °F (1945)
Min Temperature 73 °F 73 °F 59 °F (1920)
Degree Days  
Heating Degree Days 0 0  
Month to date heating degree days 0 0  
Since 1 July heating degree days 164 233  
Cooling Degree Days 12 15  
Month to date cooling degree days 340 397  
Year to date cooling degree days 1167 1092  
Growing Degree Days 27 (Base 50)    
Moisture  
Dew Point 71 °F    
Average Humidity 75    
Maximum Humidity 88    
Minimum Humidity 62    
Precipitation  
Precipitation 0.14 in 0.23 in 7.28 in (1897)
Month to date precipitation 15.10 4.29  
Year to date precipitation 24.38 18.49  
Snow  
Snow 0.00 in - - ()
Month to date snowfall 0.0  
Since 1 July snowfall 0.0  
Snow Depth 0.00 in    
Sea Level Pressure  
Sea Level Pressure 30.06 in    
Wind  
Wind Speed 21 mph (ESE)    
Max Wind Speed 31 mph    
Max Gust Speed 38 mph    
Visibility 9 miles    
Events Rain    
T = Trace of Precipitation, MM = Missing Value Source: NWS Daily Summary

Daily Weather History Graph

Daily Weather History Graph

Search for Another Location

Airport:

Trip Planner

Search our weather history database for the weather conditions in past years. The results will help you decide how hot, cold, wet, or windy it might be!

Date:

Astronomy

May. 30, 2013 Rise Set
Actual Time 6:27 AM EDT 8:08 PM EDT
Civil Twilight 6:01 AM EDT 8:34 PM EDT
Nautical Twilight 5:30 AM EDT 9:05 PM EDT
Astronomical Twilight 4:57 AM EDT 9:38 PM EDT
Moon 12:27 AM EDT (5/30) 12:12 PM EDT (5/30)
Length of Visible Light 14h 33m
Length of Day
13h 41m
Waning Gibbous, 62% of the Moon is Illuminated
May 30
Waning Gibbous
May 31
Last Quarter
Jun 8
New
Jun 16
First Quarter
Jun 23
Full

Hourly Weather History & Observations

Time (EDT) Temp. Heat Index Dew Point Humidity Pressure Visibility Wind Dir Wind Speed Gust Speed Precip Events Conditions
12:53 AM 75.9 °F - 69.1 °F 79% 30.07 in 10.0 mi ESE 19.6 mph 31.1 mph 0.00 in Rain Light Rain
1:53 AM 73.0 °F - 68.0 °F 84% 30.06 in 10.0 mi SE 19.6 mph 33.4 mph 0.01 in   Overcast
2:53 AM 75.0 °F - 71.1 °F 87% 30.03 in 10.0 mi East 21.9 mph 29.9 mph 0.00 in Rain Light Rain
3:48 AM 73.4 °F - 69.8 °F 88% 30.03 in 10.0 mi ESE 20.7 mph 38.0 mph 0.03 in Rain Light Rain
3:53 AM 73.9 °F - 71.1 °F 91% 30.03 in 10.0 mi ESE 19.6 mph 28.8 mph 0.03 in Rain Light Rain
4:00 AM 73.4 °F - 71.6 °F 94% 30.02 in 10.0 mi ESE 16.1 mph - 0.00 in   Mostly Cloudy
4:53 AM 75.9 °F - 69.1 °F 79% 30.03 in 10.0 mi East 16.1 mph - 0.00 in   Mostly Cloudy
5:53 AM 75.9 °F - 70.0 °F 82% 30.04 in 10.0 mi ESE 16.1 mph 23.0 mph N/A   Mostly Cloudy
6:53 AM 77.0 °F - 71.1 °F 82% 30.04 in 10.0 mi ESE 18.4 mph - N/A   Mostly Cloudy
7:37 AM 75.2 °F - 71.6 °F 89% 30.05 in 10.0 mi East 19.6 mph 28.8 mph 0.00 in Rain Light Rain
7:49 AM 73.4 °F - 69.8 °F 88% 30.06 in 10.0 mi East 18.4 mph 31.1 mph 0.00 in Rain Light Rain
7:53 AM 73.9 °F - 70.0 °F 87% 30.06 in 10.0 mi East 20.7 mph 29.9 mph 0.00 in Rain Light Rain
8:53 AM 78.1 °F - 72.0 °F 81% 30.06 in 10.0 mi East 19.6 mph 25.3 mph 0.00 in   Mostly Cloudy
9:20 AM 78.8 °F - 71.6 °F 78% 30.07 in 10.0 mi SE 29.9 mph 36.8 mph 0.00 in Rain Light Rain
9:23 AM 75.2 °F - 71.6 °F 89% 30.08 in 1.0 mi SE 24.2 mph 36.8 mph 0.00 in Rain Heavy Rain
9:27 AM 75.2 °F - 71.6 °F 89% 30.08 in 3.0 mi SE 20.7 mph 36.8 mph 0.02 in Rain Heavy Rain
9:41 AM 75.2 °F - 73.4 °F 94% 30.08 in 10.0 mi SE 21.9 mph 26.5 mph 0.03 in Rain Light Rain
9:53 AM 77.0 °F - 72.0 °F 84% 30.08 in 10.0 mi ESE 18.4 mph 24.2 mph 0.03 in   Mostly Cloudy
10:17 AM 78.8 °F - 71.6 °F 78% 30.07 in 10.0 mi ESE 16.1 mph 23.0 mph N/A   Mostly Cloudy
10:53 AM 75.9 °F - 70.0 °F 82% 30.09 in 3.0 mi ESE 24.2 mph 36.8 mph 0.00 in Rain Heavy Rain
11:53 AM 79.0 °F - 72.0 °F 79% 30.08 in 10.0 mi ESE 18.4 mph - 0.01 in   Overcast
12:40 PM 78.8 °F - 71.6 °F 78% 30.08 in 10.0 mi ESE 25.3 mph 38.0 mph 0.00 in Rain Light Rain
12:53 PM 75.0 °F - 71.1 °F 87% 30.08 in 5.0 mi SE 20.7 mph 28.8 mph 0.00 in Rain Light Rain
1:53 PM 79.0 °F - 72.0 °F 79% 30.06 in 10.0 mi ESE 25.3 mph - 0.01 in Rain Light Rain
2:08 PM 75.2 °F - 73.4 °F 94% 30.07 in 5.0 mi ESE 20.7 mph - 0.00 in Rain Light Rain
2:53 PM 77.0 °F - 73.9 °F 90% 30.05 in 5.0 mi ESE 13.8 mph - 0.01 in Rain Light Rain
3:39 PM 78.8 °F - 71.6 °F 78% 30.04 in 10.0 mi East 25.3 mph 31.1 mph 0.04 in Rain Light Rain
3:53 PM 79.0 °F - 72.0 °F 79% 30.04 in 10.0 mi East 24.2 mph 31.1 mph 0.04 in   Mostly Cloudy
4:53 PM 80.1 °F 82.9 °F 69.1 °F 69% 30.02 in 10.0 mi East 27.6 mph 33.4 mph N/A   Scattered Clouds
5:53 PM 80.1 °F 82.3 °F 66.9 °F 64% 30.02 in 10.0 mi ESE 25.3 mph 29.9 mph N/A   Scattered Clouds
6:53 PM 79.0 °F - 69.1 °F 72% 30.02 in 10.0 mi East 27.6 mph 33.4 mph N/A   Mostly Cloudy
7:53 PM 78.1 °F - 70.0 °F 76% 30.04 in 10.0 mi East 21.9 mph 27.6 mph N/A   Mostly Cloudy
8:53 PM 77.0 °F - 68.0 °F 74% 30.05 in 10.0 mi East 23.0 mph 29.9 mph N/A   Mostly Cloudy
9:53 PM 75.9 °F - 71.1 °F 85% 30.07 in 10.0 mi ESE 21.9 mph - 0.00 in   Mostly Cloudy
10:53 PM 75.9 °F - 71.1 °F 85% 30.07 in 10.0 mi ESE 20.7 mph - 0.00 in   Mostly Cloudy
11:53 PM 75.9 °F - 70.0 °F 82% 30.07 in 10.0 mi ESE 17.3 mph - 0.00 in   Mostly Cloudy